Location: San Antonio
(29.4240°N, 98.4930°W)
Time: 03:50:19
(UTC-05:00)

Tiros 1 - Visible Passes

Search period start: 15 July 2024 00:00
Search period end: 25 July 2024 00:00
Orbit: 624 x 656 km, 48.4° (Epoch: 14 July)

Date Brightness Start Highest point End Pass type
(mag) Time Alt. Az. Time Alt. Az. Time Alt. Az.
15 Jul 8.9 21:54:06 10° NNW 21:57:37 21° NNE 22:00:14 14° ENE visible
15 Jul 8.8 23:35:24 10° NW 23:37:45 29° WNW 23:37:45 29° WNW visible
16 Jul 7.8 22:17:22 10° NW 22:21:44 43° NE 22:22:52 36° ENE visible
16 Jul 9.8 23:59:54 10° WNW 00:00:23 12° W 00:00:23 12° W visible
17 Jul 9.0 20:59:54 10° NNW 21:03:12 19° NNE 21:06:28 10° ENE visible
17 Jul 7.0 22:41:02 10° NW 22:45:33 77° SW 22:45:33 77° SW visible
18 Jul 8.0 21:23:05 10° NNW 21:27:21 37° NE 21:30:47 14° E visible
18 Jul 8.7 23:05:19 10° WNW 23:08:18 26° WSW 23:08:18 26° WSW visible
19 Jul 7.0 21:46:40 10° NW 21:51:16 88° NE 21:53:36 29° SE visible
20 Jul 8.2 22:10:47 10° WNW 22:14:57 35° SW 22:16:30 27° S visible
21 Jul 7.2 20:52:18 10° NW 20:56:54 74° NE 21:01:27 10° SE visible
21 Jul 9.4 22:36:19 10° W 22:38:27 13° SW 22:39:28 12° SW visible
22 Jul 8.0 21:16:16 10° WNW 21:20:36 42° SW 21:24:55 10° SSE visible
23 Jul 9.4 21:41:19 10° W 21:44:09 16° SW 21:46:57 10° SSW visible
